Weather in Apacha

Russia / Kamchatka Krai     52°55′07″N   157°02′29″E
temp.,
°C
wind,
m/s
gust,
m/s
humid.,
%
clouds,
%
prec.,
mm/h
press.,
hPa
HPBL,
m
28 february, sun
sun2800:00−13ne457878 0.0 100949
03:00−13ene4475100 0.0 100837
06:00−13ene2277100 0.0 100630
09:00−14e2277100 0.0 100625
12:00−9nw2270100 0.0 1004281
15:00−8w448187 0.0 1003438
18:00−8wnw688793 0.0 1000445
21:00−11wnw4994100 0.1 1000202
1 march, mon
mon100:00−11wnw61297100 0.3 999294
03:00−11wnw51096100 0.1 997184
06:00−12wnw4695100 0.3 99787
09:00−10w61291100 0.3 998294
12:00−6w91191100 0.4 9991038
15:00−6w111276100 0.6 9991405
18:00−7wsw81284100 0.9 1000747
21:00−9wsw71285100 0.8 1003251
2 march, tue
tue200:00−11wsw588280 0.8 100597
03:00−10wsw61089100 0.2 1008187
06:00−12wnw4595100 0.7 101145
09:00−12sw129697 0.3 101585
12:00−7w9127498 0.6 10181609
15:00−8w101175100 0.4 10211386
18:00−10wsw6983100 0.6 1024417
21:00−15ssw2283100 0.1 102820
3 march, wed
wed300:00−14e2383100 0.1 102722
03:00−12e4583100 0.0 1024126
06:00−12e71390100 0.8 1018374
09:00−11e132080100 1.1 1011385
12:00−7e132181100 1.5 1002493
15:00−6e132189100 4.6 993531
18:00−5e132091100 13.4 983403
21:00−3e111892100 4.9 976384
4 march, thu
thu400:00−7wsw141995100 6.8 9831170
03:00−11w152092100 1.5 9931303
06:00−12w152094100 2.6 9991314
09:00−13w142093100 0.9 10041759
12:00−11w141992100 1.8 10081953
15:00−9wsw131892100 0.9 10101772
18:00−6sw152195100 3.2 10091675
21:00−5sw162296100 3.1 10071256